{"data":{"norad_id":57764,"intl_designator":"2023-133H","name":"WILDFIRE 1","alt_names":[],"object_type":"PAYLOAD","status":"ACTIVE","operator":null,"country":"US","launch_date":"2023-09-02","launch_site_code":"AFWTR","launch_vehicle":null,"mission":null,"orbit_class":"UNKNOWN","rcs_meters":null,"size_class":null,"mass_kg":null,"dimensions":null,"purposes":[],"wikipedia_slug":null,"has_3d_model":false,"image_url":null,"decayed_at":null,"tle_current":{"epoch":"2026-09-22T17:22:43.957632Z","epoch_age_seconds":113953,"freshness":"FRESH","line1":"1 57764U 23133H   26265.72411988  .00000100  00000+0  77357-4 0  9995","line2":"2 57764  80.9959 273.2829 0007614  97.2499 262.9523 13.85745597154566","mean_motion":13.85745597,"eccentricity":0.0007614,"inclination_deg":80.9959,"raan_deg":273.2829,"arg_perigee_deg":97.2499,"mean_anomaly_deg":262.9523,"bstar":7.7357e-5,"rev_number":15456,"period_min":103.91517772941,"perigee_km":938.0035256249,"apogee_km":949.15303365273,"semimajor_km":7321.7152796388,"source":"CELESTRAK","updated_at":"2026-09-23T09:00:18.338600Z"}}}